Regional Weather Roundup
Issued by NWS Cleveland, OH

Current Version | Previous Version | Text Only | Print | Product List | Glossary On
Versions: 1 2 3 4 5 6 7 8 9 10 11 12 13 14 15 16 17 18 19 20 21 22 23 24 25 26 27 28 29 30 31 32 33 34 35 36 37 38 39 40 41 42 43 44 45 46 47 48 49 50
000
ASUS41 KCLE 231012
RWRCLE
OHIO REGIONAL WEATHER ROUNDUP
NATIONAL WEATHER SERVICE WILMINGTON, OH
600 AM EDT WED AUG 23 2017

NOTE: "FAIR" INDICATES FEW OR NO CLOUDS BELOW 12,000 FEET WITH NO
SIGNIFICANT WEATHER AND/OR OBSTRUCTIONS TO VISIBILITY.

OHZ001>008-015>018-024>027-034-035-043-044-231100-
   NORTHWEST OHIO

CITY           SKY/WX    TMP DP  RH WIND       PRES   REMARKS
DEFIANCE       FAIR      55  53  93 CALM      29.97S
FINDLAY        FAIR      56  52  86 SW5       29.96S
TOLEDO EXPRESS FAIR      55  54  96 W7        29.95S
TOLEDO EXEC    FAIR      55  53  93 SW3       29.95S
LIMA           FAIR      54  54 100 SW3       29.98S
$$

OHZ009>014-019>023-028>033-038-089-231100-
   NORTHEAST OHIO

CITY           SKY/WX    TMP DP  RH WIND       PRES   REMARKS
CLE-HOPKINS    FAIR      61  57  87 SW7       29.95R
CLE-LAKEFRONT  FAIR      69  52  54 NW14      29.91S
CUY CO. ARPT   NOT AVBL
LORAIN-ELYRIA  FAIR      56  51  84 W3        29.95R
ASHTABULA      FAIR      56  55  97 CALM      29.93R
AKRON-CANTON   MOCLDY    59  54  83 NW8       29.94R
WOOSTER        FAIR      55  53  93 CALM      29.96R
MANSFIELD      FAIR      57  54  89 W5        29.97R
YOUNGSTOWN     FAIR      59  58  96 CALM      29.93R
$$

OHZ042-051>053-060>062-070>072-077>081-231100-
  SOUTHWEST OHIO

CITY           SKY/WX    TMP DP  RH WIND       PRES   REMARKS
CINC-COVINGTON FAIR      65  61  87 N7        29.99S
CINC-LUNKEN    FAIR      62  61  96 CALM      29.99S
HAMILTON       FAIR      58  58 100 CALM      30.00R
DAYTON         FAIR      59  55  87 NW7       30.00S
WRIGHT-PAT AFB FAIR      59  57  92 NW5       29.98S
DAYTON GENERAL FAIR      60  56  86 CALM      29.99R
WILMINGTON     FAIR      61  56  83 N7        29.98S
$$

OHZ036-037-039>041-045>050-054>059-063>069-073>076-082>088-231100-
  CENTRAL AND SOUTHEAST OHIO

CITY           SKY/WX    TMP DP  RH WIND       PRES   REMARKS
COLUMBUS       FAIR      61  56  83 NW7       29.97R
OSU AIRPORT    FAIR      58  55  90 NW3       29.97R
BOLTON FIELD   FAIR      58  55  90 NW3       29.98S
RICKENBACK AFB FAIR      60  56  87 CALM      29.97R
NEWARK         FAIR      59  56  89 CALM      29.96S
MARION         FAIR      57  53  86 NW5       29.97S
LANCASTER      FAIR      57  55  93 N3        29.96S
ZANESVILLE     FAIR      62  57  83 NW5       29.95R
NEW PHILLY     CLOUDY    63  61  93 W5        29.95R
$$




USA.gov is the U.S. government's official web portal to all federal, state and local government web resources and services.